User: anonymous   Login
Location: Observatoire de Paris
(48.8363°N, 2.3365°E)
Time: 13:35:52
(UTC+01:00)
Language:

NUDT-PHONESAT - Orbit

View from above orbital plane
View from above orbital plane
View from above satellite
View from above satellite

Ground track
Ground track

The orbit data is extracted from the following two-line orbital elements,

1 40900U 15049B   21264.12705796  .00004315  00000-0  16413-3 0  9995
2 40900  97.4185 277.6536 0012444 153.7047 280.4062 15.27239462333425
Epoch (UTC): 21 September 2021 03:02:57
Eccentricity: 0.0012444
inclination: 97.4185°
perigee height: 475 km
apogee height: 492 km
right ascension of ascending node: 277.6536°
argument of perigee: 153.7047°
revolutions per day: 15.27239462
mean anomaly at epoch: 280.4062°
orbit number at epoch: 33342

The dashed part of the orbit path shows where the satellite is in the earth's shadow,  

DLR